GW0882 Weather Reports


Display with metric or nautical units.
time (UTC)temp
F
wind
direction
speed
MPH
gust
MPH
rain 1hr
in
rain 24hr
in
rain mn
in
humidity
%
barometer
mb
20260510101535 52 0 1.0 4.0 0.00 0.00 0.00 76 1016.3
20260510100035 51 175 1.0 11.0 0.00 0.00 0.00 77 1016.2
20260510094539 51 76 1.0 9.0 0.00 0.00 0.00 76 1016.2
20260510093035 51 136 2.0 10.0 0.00 0.00 0.00 74 1016.2
20260510091538 51 0 2.0 12.0 0.00 0.00 0.00 74 1016.4
20260510090037 51 0 0.0 9.0 0.00 0.00 0.00 76 1016.6
20260510084536 51 32 2.0 10.0 0.00 0.00 0.00 75 1016.7
20260510083035 51 348 2.0 10.0 0.00 0.00 0.00 76 1016.7
20260510081542 50 75 1.0 10.0 0.00 0.00 0.00 77 1016.7
20260510080037 50 15 1.0 7.0 0.00 0.00 0.00 78 1016.6
20260510074542 50 0 1.0 13.0 0.00 0.00 0.00 79 1016.6
20260510073035 50 0 0.0 6.0 0.00 0.00 0.00 79 1016.6
20260510071536 50 37 0.0 5.0 0.00 0.00 0.00 80 1016.7
20260510070035 49 81 1.0 10.0 0.00 0.00 0.00 80 1016.6
20260510064536 49 0 0.0 6.0 0.00 0.00 0.00 81 1016.7
20260510063035 49 323 0.0 7.0 0.00 0.00 0.00 81 1016.8
20260510061537 48 0 0.0 9.0 0.00 0.00 0.00 81 1016.9
20260510060046 48 0 1.0 7.0 0.00 0.00 0.00 82 1016.7
20260510054541 48 53 0.0 4.0 0.00 0.00 0.00 82 1016.6
20260510053041 48 321 0.0 3.0 0.00 0.00 0.00 82 1016.5
20260510051542 48 76 0.0 9.0 0.00 0.00 0.00 83 1016.6
20260510050046 48 0 0.0 5.0 0.00 0.00 0.00 83 1016.6
20260510044543 48 89 0.0 11.0 0.00 0.00 0.00 83 1016.5
20260510043102 48 52 0.0 7.0 0.00 0.00 0.00 82 1016.5
20260510041536 48 355 0.0 6.0 0.00 0.00 0.00 82 1016.5
20260510040037 48 0 1.0 9.0 0.00 0.00 0.00 82 1016.7
20260510034545 48 22 0.0 7.0 0.00 0.00 0.00 82 1016.7
20260510033039 48 331 1.0 9.0 0.00 0.00 0.00 81 1016.8
20260510031608 48 0 0.0 9.0 0.00 0.00 0.00 81 1016.9
20260510030039 49 315 0.0 6.0 0.00 0.00 0.00 81 1016.8
20260510024538 49 0 0.0 10.0 0.00 0.00 0.00 81 1016.7
20260510023045 49 0 0.0 7.0 0.00 0.00 0.00 81 1016.7
20260510021545 49 15 0.0 4.0 0.00 0.00 0.00 80 1016.7
20260510020042 49 0 0.0 3.0 0.00 0.00 0.00 80 1016.8
20260510014538 50 12 0.0 7.0 0.00 0.00 0.00 79 1016.8
20260510013038 50 0 0.0 4.0 0.00 0.00 0.00 78 1016.9
20260510011543 50 26 0.0 5.0 0.00 0.00 0.00 78 1016.9
20260510010039 50 0 0.0 2.0 0.00 0.00 0.00 78 1016.9
20260510004541 50 342 0.0 2.0 0.00 0.00 0.00 77 1016.9
20260510003108 50 0 0.0 4.0 0.00 0.00 0.00 76 1016.8
20260510001536 50 0 0.0 6.0 0.00 0.00 0.00 75 1017.1
20260510000037 50 0 0.0 4.0 0.00 0.00 0.00 73 1017.1
20260509234541 51 0 0.0 3.0 0.00 0.00 0.00 72 1017.1
20260509233041 51 0 0.0 4.0 0.00 0.00 0.00 71 1017.1
20260509231544 52 0 0.0 6.0 0.00 0.00 0.00 70 1017.1
20260509230036 52 38 1.0 9.0 0.00 0.00 0.00 68 1017.2
20260509224538 52 0 0.0 6.0 0.00 0.00 0.00 67 1017.2
20260509223035 52 38 1.0 10.0 0.00 0.00 0.00 64 1017.2
20260509221540 52 0 2.0 13.0 0.00 0.00 0.00 62 1017.2
20260509220043 52 57 3.0 11.0 0.00 0.00 0.00 60 1017.2
20260509214541 52 51 1.0 11.0 0.00 0.00 0.00 59 1017.1
20260509213054 52 35 0.0 7.0 0.00 0.00 0.00 59 1017.3
20260509211604 53 0 0.0 10.0 0.00 0.00 0.00 57 1017.2
20260509210037 53 0 1.0 8.0 0.00 0.00 0.00 55 1017.1
20260509204557 53 0 1.0 8.0 0.00 0.00 0.00 53 1017.1
20260509203049 54 31 0.0 7.0 0.00 0.00 0.00 52 1016.9
20260509201540 54 56 0.0 7.0 0.00 0.00 0.00 52 1016.8
20260509200039 55 0 0.0 5.0 0.00 0.00 0.00 53 1016.8
20260509194538 56 59 0.0 6.0 0.00 0.00 0.00 52 1016.8
20260509193042 57 0 0.0 9.0 0.00 0.00 0.00 51 1016.8
20260509191541 58 15 1.0 10.0 0.00 0.00 0.00 50 1016.6
20260509190046 59 360 0.0 6.0 0.00 0.00 0.00 48 1016.3
20260509184538 60 92 1.0 7.0 0.00 0.00 0.00 47 1016.4
20260509183038 61 0 1.0 11.0 0.00 0.00 0.00 46 1016.4
20260509181536 63 49 1.0 6.0 0.00 0.00 0.00 46 1016.2
20260509180037 64 0 2.0 10.0 0.00 0.00 0.00 44 1016.3
20260509174541 65 47 1.0 7.0 0.00 0.00 0.00 45 1016.2
20260509173037 67 0 0.0 15.0 0.00 0.00 0.00 42 1016.0
20260509171536 69 0 1.0 8.0 0.00 0.00 0.00 43 1016.0
20260509170038 69 0 2.0 10.0 0.00 0.00 0.00 43 1016.1
20260509164540 68 100 4.0 16.0 0.00 0.00 0.00 43 1016.0
20260509163050 69 80 1.0 14.0 0.00 0.00 0.00 42 1016.2
20260509161540 70 139 4.0 14.0 0.00 0.00 0.00 42 1016.0
20260509160038 70 0 2.0 12.0 0.00 0.00 0.00 42 1016.0
20260509154537 70 37 3.0 15.0 0.00 0.00 0.00 42 1016.1
20260509153041 71 58 1.0 13.0 0.00 0.00 0.00 40 1016.2
20260509151541 71 80 3.0 11.0 0.00 0.00 0.00 42 1016.3
20260509150039 70 32 4.0 14.0 0.00 0.00 0.00 43 1016.5
20260509144536 69 0 5.0 14.0 0.00 0.00 0.00 44 1016.4
20260509143036 69 0 5.0 13.0 0.00 0.00 0.00 43 1016.2
20260509141536 71 26 1.0 15.0 0.00 0.00 0.00 42 1016.1
20260509140045 70 40 5.0 14.0 0.00 0.00 0.00 44 1016.0
20260509134548 71 34 1.0 9.0 0.00 0.00 0.00 43 1016.0
20260509133046 70 38 4.0 15.0 0.00 0.00 0.00 43 1016.1
20260509131536 70 47 3.0 14.0 0.00 0.00 0.00 45 1016.3
20260509130036 70 24 5.0 15.0 0.00 0.00 0.00 46 1016.4
20260509124539 71 67 2.0 12.0 0.00 0.00 0.00 45 1016.4
20260509123039 70 347 3.0 13.0 0.00 0.00 0.00 44 1016.5
20260509121540 70 40 3.0 13.0 0.00 0.00 0.00 48 1016.7
20260509120037 70 0 5.0 12.0 0.00 0.00 0.00 45 1016.8
20260509114538 70 277 1.0 8.0 0.00 0.00 0.00 48 1017.1
20260509113044 68 103 2.0 12.0 0.00 0.00 0.00 49 1017.2
20260509111540 67 56 4.0 13.0 0.00 0.00 0.00 48 1017.4
20260509110039 68 94 2.0 11.0 0.00 0.00 0.00 50 1017.5
20260509104537 68 31 1.0 12.0 0.00 0.00 0.00 50 1017.5
20260509103037 67 0 2.0 11.0 0.00 0.00 0.00 57 1017.7